DW2128 Weather Reports


Display with metric or nautical units.
time (UTC)temp
F
wind
direction
speed
MPH
gust
MPH
rain 1hr
in
rain 24hr
in
rain mn
in
humidity
%
barometer
mb
20260906143333 54 231 0.0 0.0 0.00 0.00 0.00 84 1013.6
20260906142027 53 231 0.0 0.0 0.00 0.00 0.00 83 1013.5
20260906141839 53 231 0.0 0.0 0.00 0.00 0.00 83 1013.5
20260906140532 53 231 0.0 0.0 0.00 0.00 0.00 83 1013.6
20260906140340 53 231 0.0 0.0 0.00 0.00 0.00 83 1013.6
20260906135034 53 231 0.0 0.0 0.00 0.00 0.00 82 1013.4
20260906134825 53 231 0.0 0.0 0.00 0.00 0.00 82 1013.4
20260906133519 53 231 0.0 0.0 0.00 0.00 0.00 82 1013.2
20260906133325 53 231 0.0 0.0 0.00 0.00 0.00 82 1013.2
20260906132020 53 231 0.0 0.0 0.00 0.00 0.00 81 1013.0
20260906131824 53 231 0.0 0.0 0.00 0.00 0.00 81 1013.0
20260906130537 54 231 0.0 0.0 0.00 0.00 0.00 81 1013.1
20260906130325 54 231 0.0 0.0 0.00 0.00 0.00 81 1013.1
20260906125023 54 231 0.0 0.0 0.00 0.00 0.00 82 1013.1
20260906124828 54 231 0.0 0.0 0.00 0.00 0.00 82 1013.1
20260906123542 53 231 0.0 0.0 0.00 0.00 0.00 82 1013.0
20260906123327 53 231 0.0 0.0 0.00 0.00 0.00 82 1013.0
20260906122022 53 231 0.0 0.0 0.00 0.00 0.00 81 1013.0
20260906121835 53 231 0.0 0.0 0.00 0.00 0.00 81 1013.0
20260906120533 53 231 0.0 0.0 0.00 0.00 0.00 80 1013.0
20260906120322 53 231 0.0 0.0 0.00 0.00 0.00 80 1013.0
20260906115019 53 231 0.0 0.0 0.00 0.00 0.00 79 1013.0
20260906114846 53 231 0.0 0.0 0.00 0.00 0.00 79 1013.0
20260906113523 53 231 0.0 0.0 0.00 0.00 0.00 78 1012.9
20260906113331 54 231 0.0 0.0 0.00 0.00 0.00 78 1012.9
20260906112028 54 231 0.0 0.0 0.00 0.00 0.00 78 1012.7
20260906111834 54 231 0.0 0.0 0.00 0.00 0.00 78 1012.7
20260906110531 54 231 0.0 0.0 0.00 0.00 0.00 77 1012.8
20260906110341 54 231 0.0 0.0 0.00 0.00 0.00 77 1012.8
20260906105034 54 231 0.0 0.0 0.00 0.00 0.00 79 1012.7
20260906104839 54 231 0.0 0.0 0.00 0.00 0.00 79 1012.7
20260906103534 54 231 0.0 0.0 0.00 0.00 0.00 79 1012.8
20260906103320 54 231 0.0 0.0 0.00 0.00 0.00 79 1012.8
20260906102020 54 231 0.0 0.0 0.00 0.00 0.00 79 1012.8
20260906101848 54 231 0.0 0.0 0.00 0.00 0.00 79 1012.8
20260906100520 55 231 0.0 0.0 0.00 0.00 0.00 79 1012.9
20260906100345 55 231 0.0 0.0 0.00 0.00 0.00 79 1012.9
20260906095059 55 231 0.0 0.0 0.00 0.00 0.00 79 1012.9
20260906094823 55 231 0.0 0.0 0.00 0.00 0.00 79 1012.9
20260906093537 55 231 0.0 0.0 0.00 0.00 0.00 79 1013.0
20260906093326 55 231 0.0 0.0 0.00 0.00 0.00 79 1013.0
20260906092020 56 231 0.0 0.0 0.00 0.00 0.00 78 1013.0
20260906091825 56 231 0.0 0.0 0.00 0.00 0.00 78 1013.0
20260906090519 56 231 0.0 0.0 0.00 0.00 0.00 78 1013.1
20260906090323 56 231 0.0 0.0 0.00 0.00 0.00 78 1013.1
20260906085057 56 231 0.0 0.0 0.00 0.00 0.00 77 1013.1
20260906084824 56 231 0.0 0.0 0.00 0.00 0.00 77 1013.1
20260906083544 57 231 0.0 0.0 0.00 0.00 0.00 77 1013.1
20260906083327 57 231 0.0 0.0 0.00 0.00 0.00 77 1013.1
20260906082041 57 231 0.0 0.0 0.00 0.00 0.00 77 1013.4
20260906081849 57 231 0.0 0.0 0.00 0.00 0.00 77 1013.4
20260906080525 57 231 0.0 0.0 0.00 0.00 0.00 76 1013.4
20260906080335 57 231 0.0 0.0 0.00 0.00 0.00 76 1013.4
20260906075050 57 231 0.0 0.0 0.00 0.00 0.00 75 1013.4
20260906074834 58 231 0.0 0.0 0.00 0.00 0.00 75 1013.4
20260906073530 57 231 0.0 0.0 0.00 0.00 0.00 75 1013.3
20260906073336 58 231 0.0 0.0 0.00 0.00 0.00 75 1013.3
20260906072030 58 231 0.0 0.0 0.00 0.00 0.00 74 1013.4
20260906071840 58 231 0.0 0.0 0.00 0.00 0.00 74 1013.4
20260906070534 58 231 0.0 0.0 0.00 0.00 0.00 73 1013.4
20260906070340 58 231 0.0 0.0 0.00 0.00 0.00 73 1013.4
20260906065054 59 231 0.0 0.0 0.00 0.00 0.00 73 1013.4
20260906064857 59 231 0.0 0.0 0.00 0.00 0.00 72 1013.4
20260906063531 59 231 0.0 0.0 0.00 0.00 0.00 72 1013.6
20260906063341 59 231 0.0 0.0 0.00 0.00 0.00 71 1013.6
20260906062036 59 231 0.0 0.0 0.00 0.00 0.00 69 1013.6
20260906061822 60 231 0.0 0.0 0.00 0.00 0.00 69 1013.6
20260906060519 60 231 0.0 0.0 0.00 0.00 0.00 69 1013.6
20260906060329 60 231 0.0 0.0 0.00 0.00 0.00 69 1013.6
20260906055039 60 231 0.0 0.0 0.00 0.00 0.00 68 1013.7
20260906054852 60 231 0.0 0.0 0.00 0.00 0.00 68 1013.7
20260906053527 61 231 0.0 0.0 0.00 0.00 0.00 68 1013.9
20260906053352 61 231 0.0 0.0 0.00 0.00 0.00 69 1013.9
20260906052024 61 231 0.0 0.0 0.00 0.00 0.00 68 1013.9
20260906051827 61 231 0.0 0.0 0.00 0.00 0.00 68 1013.9
20260906050528 62 231 0.0 0.0 0.00 0.00 0.00 65 1013.9
20260906050338 62 231 0.0 0.0 0.00 0.00 0.00 65 1013.9
20260906045033 62 231 0.0 0.0 0.00 0.00 0.00 64 1013.8
20260906044902 62 231 0.0 0.0 0.00 0.00 0.00 64 1013.8
20260906043535 63 231 0.0 0.0 0.00 0.00 0.00 64 1013.7
20260906043401 63 231 0.0 0.0 0.00 0.00 0.00 64 1013.7
20260906042035 63 231 0.0 0.0 0.00 0.00 0.00 64 1013.6
20260906041827 63 231 0.0 0.0 0.00 0.00 0.00 64 1013.6
20260906040524 64 231 0.0 0.0 0.00 0.00 0.00 64 1013.4
20260906040330 64 231 0.0 0.0 0.00 0.00 0.00 64 1013.4
20260906035027 64 337 0.0 0.0 0.00 0.00 0.00 64 1013.2
20260906034833 64 337 0.0 0.0 0.00 0.00 0.00 64 1013.2
20260906033527 65 337 0.0 0.0 0.00 0.00 0.00 64 1013.1
20260906033336 65 337 0.0 0.0 0.00 0.00 0.00 64 1013.1
20260906032053 65 337 0.0 0.0 0.00 0.00 0.00 62 1012.9
20260906031837 65 337 0.0 0.0 0.00 0.00 0.00 62 1012.9
20260906030536 66 337 0.0 0.0 0.00 0.00 0.00 59 1012.6
20260906030323 66 337 0.0 0.0 0.00 0.00 0.00 59 1012.6
20260906025036 67 337 0.0 0.0 0.00 0.00 0.00 57 1012.5
20260906024825 67 337 0.0 0.0 0.00 0.00 0.00 56 1012.5
20260906023521 68 337 0.0 0.0 0.00 0.00 0.00 54 1012.6
20260906023330 68 337 0.0 0.0 0.00 0.00 0.00 54 1012.6
20260906022025 69 338 0.0 0.0 0.00 0.00 0.00 52 1012.5
20260906021833 69 338 0.0 0.0 0.00 0.00 0.00 51 1012.5
20260906020546 70 343 0.0 0.0 0.00 0.00 0.00 49 1012.5
20260906020354 71 343 0.0 0.0 0.00 0.00 0.00 49 1012.5
20260906015027 73 339 0.0 0.0 0.00 0.00 0.00 45 1012.4
20260906014837 73 343 0.0 0.0 0.00 0.00 0.00 45 1012.4
20260906013532 74 345 0.0 0.0 0.00 0.00 0.00 44 1012.3
20260906013401 74 345 0.0 0.0 0.00 0.00 0.00 44 1012.3
20260906012051 75 295 0.0 0.0 0.00 0.00 0.00 41 1012.2
20260906011859 76 300 0.0 0.0 0.00 0.00 0.00 40 1012.2
20260906010532 76 12 0.0 0.0 0.00 0.00 0.00 40 1012.1
20260906010400 76 12 0.0 0.0 0.00 0.00 0.00 39 1012.1
20260906005032 77 294 0.0 0.0 0.00 0.00 0.00 36 1012.0
20260906004858 77 9 0.0 0.0 0.00 0.00 0.00 37 1012.0
20260906003531 79 259 0.0 0.0 0.00 0.00 0.00 34 1012.0
20260906003324 79 255 0.0 0.0 0.00 0.00 0.00 34 1012.0
20260906002038 79 328 0.0 0.0 0.00 0.00 0.00 34 1011.9
20260906001823 79 329 0.0 0.0 0.00 0.00 0.00 34 1011.9
20260906000537 79 5 0.0 0.0 0.00 0.00 0.00 35 1011.8
20260906000326 79 5 0.0 0.0 0.00 0.00 0.00 34 1011.8
20260905235020 78 279 1.0 0.0 0.00 0.00 0.00 36 1011.8
20260905234824 78 287 1.0 0.0 0.00 0.00 0.00 37 1011.8
20260905233523 77 25 0.0 0.0 0.00 0.00 0.00 36 1011.8
20260905233332 77 16 0.0 0.0 0.00 0.00 0.00 37 1011.8
20260905232046 77 310 0.0 0.0 0.00 0.00 0.00 35 1012.0
20260905231835 77 350 0.0 0.0 0.00 0.00 0.00 35 1012.0
20260905230529 78 301 0.0 0.0 0.00 0.00 0.00 34 1011.9
20260905230354 78 297 0.0 0.0 0.00 0.00 0.00 33 1011.9
20260905225027 79 360 0.0 0.0 0.00 0.00 0.00 34 1011.9
20260905224816 79 339 0.0 0.0 0.00 0.00 0.00 33 1011.9
20260905223537 79 335 0.0 0.0 0.00 0.00 0.00 34 1011.9
20260905223327 80 220 0.0 0.0 0.00 0.00 0.00 35 1011.9
20260905222024 81 22 0.0 0.0 0.00 0.00 0.00 35 1011.7
20260905221832 81 347 0.0 0.0 0.00 0.00 0.00 34 1011.7
20260905220526 81 338 0.0 0.0 0.00 0.00 0.00 34 1011.9
20260905220336 81 338 0.0 0.0 0.00 0.00 0.00 35 1011.9
20260905215034 81 355 0.0 0.0 0.00 0.00 0.00 34 1012.0
20260905214840 81 11 0.0 0.0 0.00 0.00 0.00 34 1012.0
20260905213534 82 286 0.0 0.0 0.00 0.00 0.00 32 1011.9
20260905213341 82 18 0.0 0.0 0.00 0.00 0.00 31 1011.9
20260905212035 84 355 0.0 0.0 0.00 0.00 0.00 28 1012.0
20260905211824 83 5 0.0 0.0 0.00 0.00 0.00 30 1012.0
20260905210557 82 17 0.0 0.0 0.00 0.00 0.00 28 1012.1
20260905210320 81 253 0.0 0.0 0.00 0.00 0.00 30 1012.0
20260905205040 82 245 0.0 0.0 0.00 0.00 0.00 28 1012.1
20260905204822 83 238 0.0 0.0 0.00 0.00 0.00 27 1012.1
20260905203536 81 293 0.0 0.0 0.00 0.00 0.00 28 1012.1
20260905203325 81 39 0.0 0.0 0.00 0.00 0.00 27 1012.1
20260905202059 81 348 0.0 0.0 0.00 0.00 0.00 28 1012.2
20260905201822 80 360 0.0 0.0 0.00 0.00 0.00 28 1012.2
20260905200539 80 12 0.0 0.0 0.00 0.00 0.00 28 1012.3
20260905200326 80 24 0.0 0.0 0.00 0.00 0.00 29 1012.3
20260905195025 79 5 0.0 0.0 0.00 0.00 0.00 27 1012.5
20260905194833 79 351 0.0 0.0 0.00 0.00 0.00 28 1012.5
20260905193553 79 24 0.0 0.0 0.00 0.00 0.00 27 1012.6
20260905193402 79 24 0.0 0.0 0.00 0.00 0.00 25 1012.6
20260905192035 78 318 0.0 0.0 0.00 0.00 0.00 29 1012.7
20260905191838 78 318 0.0 0.0 0.00 0.00 0.00 27 1012.7
20260905190533 77 318 0.0 0.0 0.00 0.00 0.00 31 1013.0
20260905190356 77 318 0.0 0.0 0.00 0.00 0.00 32 1013.0
20260905185033 74 297 0.0 0.0 0.00 0.00 0.00 34 1013.0
20260905184838 74 236 0.0 0.0 0.00 0.00 0.00 35 1013.0
20260905183556 74 323 0.0 0.0 0.00 0.00 0.00 37 1012.8
20260905183340 74 323 0.0 0.0 0.00 0.00 0.00 39 1012.8
20260905182035 73 292 0.0 0.0 0.00 0.00 0.00 38 1012.8
20260905181824 73 275 0.0 0.0 0.00 0.00 0.00 41 1012.8
20260905180519 73 11 0.0 0.0 0.00 0.00 0.00 38 1012.8
20260905180323 72 298 0.0 0.0 0.00 0.00 0.00 36 1012.8
20260905175037 72 298 0.0 0.0 0.00 0.00 0.00 39 1012.9
20260905174825 72 298 0.0 0.0 0.00 0.00 0.00 39 1012.9
20260905173526 70 297 0.0 0.0 0.00 0.00 0.00 44 1012.9
20260905173331 69 297 0.0 0.0 0.00 0.00 0.00 48 1012.9
20260905172026 68 296 0.0 0.0 0.00 0.00 0.00 49 1012.9
20260905171830 68 296 0.0 0.0 0.00 0.00 0.00 50 1012.9
20260905170525 67 296 0.0 0.0 0.00 0.00 0.00 57 1013.1
20260905170337 67 296 0.0 0.0 0.00 0.00 0.00 59 1013.1
20260905165051 64 296 0.0 0.0 0.00 0.00 0.00 65 1013.0
20260905164835 63 296 0.0 0.0 0.00 0.00 0.00 67 1013.0
20260905163536 63 296 0.0 0.0 0.00 0.00 0.00 69 1013.0
20260905163320 62 296 0.0 0.0 0.00 0.00 0.00 70 1013.0
20260905162021 61 296 0.0 0.0 0.00 0.00 0.00 69 1013.0
20260905161830 61 296 0.0 0.0 0.00 0.00 0.00 69 1013.0
20260905160524 60 296 0.0 0.0 0.00 0.00 0.00 69 1012.9
20260905160329 60 296 0.0 0.0 0.00 0.00 0.00 69 1012.9
20260905155024 58 296 0.0 0.0 0.00 0.00 0.00 70 1012.8
20260905154832 58 296 0.0 0.0 0.00 0.00 0.00 70 1012.8
20260905153530 57 296 0.0 0.0 0.00 0.00 0.00 72 1012.7
20260905153335 57 296 0.0 0.0 0.00 0.00 0.00 72 1012.7
20260905152015 57 296 0.0 0.0 0.00 0.00 0.00 74 1012.6
20260905151825 57 296 0.0 0.0 0.00 0.00 0.00 75 1012.6
20260905150538 56 296 0.0 0.0 0.00 0.00 0.00 76 1012.6
20260905150326 56 296 0.0 0.0 0.00 0.00 0.00 76 1012.6
20260905145021 55 296 0.0 0.0 0.00 0.00 0.00 79 1012.6
20260905144824 55 296 0.0 0.0 0.00 0.00 0.00 80 1012.6
20260905143519 54 296 0.0 0.0 0.00 0.00 0.00 82 1012.6